EW7893 Weather Reports


Display with metric or nautical units.
time (UTC)temp
F
wind
direction
speed
MPH
gust
MPH
rain 1hr
in
rain 24hr
in
rain mn
in
humidity
%
barometer
mb
20260502191602 61 330 1.0 5.0 0.00 0.00 0.00 39 1011.0
20260502190022 60 25 3.0 7.0 0.00 0.00 0.00 39 1011.1
20260502184554 59 8 2.0 6.0 0.00 0.00 0.00 43 1011.3
20260502183104 59 15 1.0 5.0 0.00 0.00 0.00 45 1011.4
20260502181508 59 319 2.0 8.0 0.00 0.00 0.00 45 1011.5
20260502180333 60 53 3.0 9.0 0.00 0.00 0.00 47 1011.6
20260502163054 58 206 1.0 6.0 0.00 0.00 0.00 53 1012.5
20260502161555 57 300 1.0 9.0 0.00 0.00 0.00 55 1012.4
20260502160304 57 280 2.0 7.0 0.00 0.00 0.00 56 1012.4
20260502151540 53 309 1.0 5.0 0.00 0.00 0.00 63 1012.7
20260502150104 53 304 1.0 6.0 0.00 0.00 0.00 64 1012.6
20260502140113 54 27 0.0 5.0 0.00 0.00 0.00 68 1012.6
20260502123046 52 289 0.0 4.0 0.00 0.00 0.00 73 1012.8
20260502121555 52 321 0.0 2.0 0.00 0.00 0.00 74 1012.5
20260502120322 52 226 1.0 3.0 0.00 0.00 0.00 76 1012.5
20260502114600 51 55 0.0 2.0 0.00 0.00 0.00 79 1012.5
20260502113014 51 169 0.0 1.0 0.00 0.00 0.00 83 1012.4
20260502111524 50 226 0.0 1.0 0.00 0.00 0.00 84 1012.5
20260502110045 50 226 0.0 1.0 0.00 0.00 0.00 85 1012.2
20260502104600 49 203 0.0 0.0 0.00 0.00 0.00 85 1012.2
20260502103018 49 160 0.0 0.0 0.00 0.00 0.00 84 1011.7
20260502101533 50 160 0.0 1.0 0.00 0.00 0.00 83 1011.6
20260502100311 50 160 0.0 0.0 0.00 0.00 0.00 82 1011.5
20260502091527 50 200 0.0 1.0 0.00 0.00 0.00 78 1012.1
20260502064511 52 204 1.0 6.0 0.00 0.00 0.00 72 1011.8
20260502063032 52 153 0.0 3.0 0.00 0.00 0.00 71 1012.0
20260502061549 52 178 0.0 3.0 0.00 0.00 0.00 71 1012.2
20260502060338 53 207 1.0 3.0 0.00 0.00 0.00 71 1012.4
20260502060032 52 143 1.0 3.0 0.00 0.00 0.00 71 1012.3
20260502054555 52 148 0.0 2.0 0.00 0.00 0.00 69 1012.2
20260502053004 52 203 0.0 2.0 0.00 0.00 0.00 68 1012.1
20260502051528 53 95 0.0 4.0 0.00 0.00 0.00 68 1012.2
20260502050036 53 200 0.0 3.0 0.00 0.00 0.00 67 1012.2
20260502044544 53 219 0.0 2.0 0.00 0.00 0.00 66 1012.1
20260502043015 53 236 0.0 3.0 0.00 0.00 0.00 65 1012.0
20260502041541 53 252 0.0 5.0 0.00 0.00 0.00 64 1012.1
20260502040314 54 187 2.0 6.0 0.00 0.00 0.00 64 1012.2
20260502040045 54 203 1.0 6.0 0.00 0.00 0.00 64 1012.2
20260502034504 54 197 1.0 5.0 0.00 0.00 0.00 65 1012.3
20260502033013 55 221 1.0 6.0 0.00 0.00 0.00 64 1012.0
20260502031526 55 221 1.0 6.0 0.00 0.00 0.00 64 1012.1
20260502030052 55 158 0.0 5.0 0.00 0.01 0.00 65 1012.0
20260502024558 55 243 2.0 4.0 0.00 0.01 0.00 66 1012.3
20260502023017 55 230 1.0 6.0 0.00 0.01 0.00 68 1012.3
20260502021531 54 203 1.0 4.0 0.00 0.01 0.00 69 1012.2
20260502020338 54 163 1.0 2.0 0.00 0.01 0.00 69 1012.1
20260502020025 54 134 1.0 2.0 0.00 0.01 0.00 69 1012.0
20260502014540 54 169 0.0 5.0 0.00 0.01 0.00 69 1012.0
20260502013052 54 229 2.0 5.0 0.00 0.01 0.00 70 1011.9
20260502011520 54 154 1.0 5.0 0.00 0.01 0.00 71 1011.8
20260502010034 54 178 1.0 5.0 0.00 0.01 0.00 71 1011.8
20260502004610 55 113 0.0 3.0 0.00 0.01 0.00 70 1011.4
20260502003014 55 138 1.0 6.0 0.00 0.01 0.00 70 1011.5
20260502001522 56 152 1.0 7.0 0.00 0.01 0.00 69 1011.4
20260502000310 57 117 3.0 8.0 0.00 0.01 0.00 68 1011.2
20260502000028 56 184 2.0 9.0 0.00 0.01 0.00 68 1011.2
20260501234540 57 179 3.0 6.0 0.00 0.01 0.00 66 1011.1
20260501233100 57 85 3.0 7.0 0.00 0.01 0.00 66 1010.9
20260501231523 57 97 3.0 10.0 0.00 0.01 0.00 65 1010.9
20260501230032 58 86 4.0 8.0 0.00 0.01 0.00 62 1010.8
20260501224554 59 128 3.0 10.0 0.00 0.01 0.00 60 1010.6
20260501223112 58 89 4.0 13.0 0.00 0.01 0.00 61 1010.7
20260501221524 59 130 4.0 12.0 0.00 0.01 0.00 59 1010.8
20260501220313 59 92 6.0 11.0 0.00 0.01 0.00 60 1010.8
20260501220029 59 134 6.0 11.0 0.00 0.01 0.00 59 1010.8
20260501214600 60 147 4.0 9.0 0.00 0.01 0.00 58 1011.0
20260501213017 58 86 6.0 13.0 0.00 0.01 0.00 60 1010.8
20260501211529 59 114 4.0 13.0 0.00 0.01 0.00 60 1010.9
20260501210051 58 79 6.0 15.0 0.00 0.01 0.00 60 1010.8
20260501204556 59 121 4.0 16.0 0.00 0.01 0.00 60 1010.9
20260501203014 60 115 7.0 16.0 0.00 0.01 0.00 56 1010.9
20260501201526 62 172 5.0 15.0 0.00 0.01 0.00 49 1010.9
20260501200306 65 136 3.0 12.0 0.00 0.01 0.00 38 1011.0
20260501200026 65 178 2.0 12.0 0.00 0.01 0.00 39 1011.0
20260501194548 64 229 3.0 10.0 0.00 0.01 0.00 38 1011.1
20260501193101 65 221 3.0 7.0 0.00 0.01 0.00 40 1011.1